When you browse on this site, cookies collect data to enhance your experience and personalize the content and advertising you see.
Visit our Privacy Policy to learn more. By continuing to use the site, you agree to this use of cookies and data.
  • In Deutschland
  • Länderverzeichnis
  • Für 7 Tage
  • Wassertemperatur
  • Satellitenkarten
  • Wetterkarte
  • Widgets
  • user-avatar
    Anmelden

    Stündliche Wetter Boa Vista

    Heute, 16 Dezember, Sonntag

    Zeit Temperatur Niederschläge Wind Luftdruck Luftfeuchtigkeit
    00:00 +27°C° 0 mm 3 m/S 755 mmHg 65%
    01:00 +27°C° 0 mm 3 m/S 755 mmHg 67%
    02:00 +26°C° 0 mm 3 m/S 755 mmHg 69%
    03:00 +26°C° 0 mm 2 m/S 755 mmHg 70%
    04:00 +26°C° 0 mm 2 m/S 755 mmHg 72%
    05:00 +25°C° 0 mm 2 m/S 755 mmHg 74%
    06:00 +26°C° 0 mm 3 m/S 756 mmHg 70%
    07:00 +27°C° 0 mm 4 m/S 756 mmHg 66%
    08:00 +28°C° 0 mm 4 m/S 757 mmHg 63%
    09:00 +30°C° 0 mm 4 m/S 757 mmHg 57%
    10:00 +32°C° 0 mm 4 m/S 757 mmHg 52%
    11:00 +34°C° 0 mm 4 m/S 757 mmHg 46%
    12:00 +35°C° 0 mm 4 m/S 756 mmHg 44%
    13:00 +36°C° 0 mm 3 m/S 755 mmHg 41%
    14:00 +37°C° 0 mm 3 m/S 754 mmHg 38%
    15:00 +36°C° 0 mm 3 m/S 753 mmHg 39%
    16:00 +36°C° 0 mm 3 m/S 752 mmHg 40%
    17:00 +36°C° 0 mm 2 m/S 752 mmHg 41%
    18:00 +34°C° 0 mm 2 m/S 752 mmHg 45%
    19:00 +32°C° 0 mm 2 m/S 752 mmHg 50%
    20:00 +30°C° 0 mm 2 m/S 753 mmHg 54%
    21:00 +30°C° 0 mm 2 m/S 753 mmHg 56%
    22:00 +29°C° 0 mm 3 m/S 753 mmHg 58%
    23:00 +29°C° 0 mm 3 m/S 754 mmHg 60%

    Morgen, 17 Dezember, Montag

    Zeit Temperatur Niederschläge Wind Luftdruck Luftfeuchtigkeit
    00:00 +28°C° 0 mm 3 m/S 754 mmHg 63%
    01:00 +28°C° 0 mm 3 m/S 753 mmHg 66%
    02:00 +27°C° 0 mm 3 m/S 753 mmHg 69%
    03:00 +27°C° 0 mm 3 m/S 753 mmHg 71%
    04:00 +27°C° 0 mm 3 m/S 753 mmHg 73%
    05:00 +26°C° 0 mm 3 m/S 753 mmHg 75%
    06:00 +27°C° 0 mm 4 m/S 754 mmHg 72%
    07:00 +28°C° 0 mm 4 m/S 755 mmHg 68%
    08:00 +29°C° 0 mm 5 m/S 756 mmHg 65%
    09:00 +30°C° 0 mm 5 m/S 756 mmHg 58%
    10:00 +33°C° 0 mm 5 m/S 756 mmHg 52%
    11:00 +35°C° 0 mm 4 m/S 756 mmHg 45%
    12:00 +36°C° 0 mm 4 m/S 754 mmHg 42%
    13:00 +37°C° 0 mm 4 m/S 753 mmHg 39%
    14:00 +37°C° 0 mm 4 m/S 752 mmHg 36%
    15:00 +37°C° 0 mm 3 m/S 751 mmHg 37%
    16:00 +37°C° 0 mm 3 m/S 751 mmHg 39%
    17:00 +36°C° 0 mm 2 m/S 750 mmHg 40%
    18:00 +35°C° 0 mm 3 m/S 751 mmHg 44%
    19:00 +33°C° 0 mm 3 m/S 752 mmHg 49%
    20:00 +31°C° 0 mm 3 m/S 752 mmHg 53%
    21:00 +30°C° 0 mm 3 m/S 753 mmHg 54%
    22:00 +30°C° 0 mm 3 m/S 753 mmHg 56%
    23:00 +30°C° 0 mm 4 m/S 754 mmHg 58%

    übermorgen, 18 Dezember, Dienstag

    Zeit Temperatur Niederschläge Wind Luftdruck Luftfeuchtigkeit
    00:00 +29°C° 0 mm 3 m/S 754 mmHg 60%
    01:00 +28°C° 0 mm 3 m/S 753 mmHg 62%
    02:00 +28°C° 0 mm 3 m/S 753 mmHg 65%
    03:00 +27°C° 0 mm 3 m/S 753 mmHg 67%
    04:00 +27°C° 0 mm 3 m/S 753 mmHg 69%
    05:00 +27°C° 0 mm 3 m/S 753 mmHg 71%
    06:00 +27°C° 0 mm 4 m/S 754 mmHg 69%
    07:00 +28°C° 0 mm 4 m/S 755 mmHg 66%
    08:00 +29°C° 0 mm 4 m/S 755 mmHg 64%
    09:00 +32°C° 0 mm 5 m/S 755 mmHg 59%
    10:00 +33°C° 0 mm 5 m/S 755 mmHg 53%
    11:00 +35°C° 0 mm 5 m/S 755 mmHg 47%
    12:00 +35°C° 0.3 mm 4 m/S 754 mmHg 49%
    13:00 +35°C° 0.3 mm 4 m/S 753 mmHg 50%
    14:00 +35°C° 0.3 mm 4 m/S 752 mmHg 52%
    15:00 +35°C° 0.1 mm 3 m/S 751 mmHg 51%
    16:00 +35°C° 0.1 mm 3 m/S 751 mmHg 49%
    17:00 +35°C° 0.1 mm 3 m/S 751 mmHg 48%
    18:00 +34°C° 0 mm 2 m/S 751 mmHg 52%
    19:00 +32°C° 0 mm 2 m/S 752 mmHg 55%
    20:00 +30°C° 0 mm 2 m/S 753 mmHg 59%
    21:00 +30°C° 0 mm 2 m/S 753 mmHg 62%
    22:00 +29°C° 0 mm 3 m/S 753 mmHg 64%
    23:00 +29°C° 0 mm 3 m/S 754 mmHg 67%

    19 Dezember, Mittwoch

    Zeit Temperatur Niederschläge Wind Luftdruck Luftfeuchtigkeit
    00:00 +28°C° 0.1 mm 3 m/S 754 mmHg 70%
    01:00 +28°C° 0.1 mm 3 m/S 753 mmHg 73%
    02:00 +27°C° 0.1 mm 3 m/S 753 mmHg 75%
    03:00 +27°C° 0 mm 3 m/S 753 mmHg 76%
    04:00 +27°C° 0 mm 3 m/S 753 mmHg 77%
    05:00 +27°C° 0 mm 3 m/S 753 mmHg 78%
    06:00 +27°C° 0 mm 4 m/S 754 mmHg 75%
    07:00 +28°C° 0 mm 4 m/S 755 mmHg 71%
    08:00 +29°C° 0 mm 5 m/S 755 mmHg 68%
    09:00 +32°C° 0 mm 5 m/S 755 mmHg 61%
    10:00 +34°C° 0 mm 5 m/S 755 mmHg 54%
    11:00 +35°C° 0 mm 5 m/S 755 mmHg 48%
    12:00 +36°C° 0 mm 5 m/S 754 mmHg 46%
    13:00 +36°C° 0 mm 5 m/S 752 mmHg 45%
    14:00 +36°C° 0 mm 5 m/S 751 mmHg 43%
    15:00 +36°C° 0 mm 4 m/S 751 mmHg 44%
    16:00 +36°C° 0 mm 4 m/S 750 mmHg 46%
    17:00 +35°C° 0 mm 3 m/S 750 mmHg 47%
    18:00 +34°C° 0 mm 3 m/S 751 mmHg 51%
    19:00 +33°C° 0 mm 3 m/S 751 mmHg 55%
    20:00 +31°C° 0 mm 3 m/S 752 mmHg 59%
    21:00 +30°C° 0.5 mm 3 m/S 752 mmHg 64%
    22:00 +29°C° 0.5 mm 3 m/S 753 mmHg 68%
    23:00 +28°C° 0.5 mm 3 m/S 753 mmHg 73%

    20 Dezember, Donnerstag

    Zeit Temperatur Niederschläge Wind Luftdruck Luftfeuchtigkeit
    00:00 +28°C° 0.2 mm 3 m/S 753 mmHg 76%
    01:00 +27°C° 0.2 mm 3 m/S 753 mmHg 79%
    02:00 +27°C° 0.2 mm 3 m/S 752 mmHg 82%
    03:00 +27°C° 0 mm 3 m/S 752 mmHg 82%
    04:00 +26°C° 0 mm 3 m/S 753 mmHg 82%
    05:00 +26°C° 0 mm 3 m/S 753 mmHg 83%
    06:00 +27°C° 0 mm 4 m/S 753 mmHg 79%
    07:00 +28°C° 0 mm 4 m/S 754 mmHg 74%
    08:00 +29°C° 0 mm 5 m/S 755 mmHg 70%
    09:00 +30°C° 0 mm 5 m/S 755 mmHg 66%
    10:00 +32°C° 0 mm 5 m/S 755 mmHg 63%
    11:00 +33°C° 0 mm 5 m/S 754 mmHg 59%
    12:00 +34°C° 0 mm 5 m/S 753 mmHg 55%
    13:00 +34°C° 0 mm 5 m/S 752 mmHg 52%
    14:00 +35°C° 0 mm 4 m/S 751 mmHg 48%
    15:00 +35°C° 0 mm 4 m/S 751 mmHg 49%
    16:00 +35°C° 0 mm 4 m/S 750 mmHg 49%
    17:00 +35°C° 0 mm 3 m/S 750 mmHg 49%
    18:00 +34°C° 0.1 mm 3 m/S 751 mmHg 54%
    19:00 +31°C° 0.1 mm 3 m/S 751 mmHg 60%
    20:00 +30°C° 0.1 mm 3 m/S 752 mmHg 65%
    21:00 +29°C° 0.2 mm 3 m/S 752 mmHg 68%
    22:00 +28°C° 0.2 mm 3 m/S 753 mmHg 72%
    23:00 +28°C° 0.2 mm 4 m/S 753 mmHg 76%

    21 Dezember, Freitag

    Zeit Temperatur Niederschläge Wind Luftdruck Luftfeuchtigkeit
    00:00 +27°C° 0 mm 4 m/S 753 mmHg 77%
    01:00 +27°C° 0 mm 3 m/S 752 mmHg 77%
    02:00 +27°C° 0 mm 3 m/S 752 mmHg 78%
    03:00 +27°C° 0 mm 3 m/S 752 mmHg 78%
    04:00 +26°C° 0 mm 3 m/S 752 mmHg 77%
    05:00 +26°C° 0 mm 3 m/S 752 mmHg 77%
    06:00 +27°C° 0 mm 4 m/S 753 mmHg 73%
    07:00 +28°C° 0 mm 5 m/S 754 mmHg 70%
    08:00 +29°C° 0 mm 6 m/S 755 mmHg 66%
    09:00 +30°C° 0 mm 6 m/S 754 mmHg 60%
    10:00 +32°C° 0 mm 5 m/S 754 mmHg 54%
    11:00 +34°C° 0 mm 5 m/S 754 mmHg 48%
    12:00 +35°C° 0 mm 5 m/S 753 mmHg 44%
    13:00 +36°C° 0 mm 5 m/S 752 mmHg 39%
    14:00 +37°C° 0 mm 5 m/S 751 mmHg 34%
    15:00 +37°C° 0 mm 4 m/S 751 mmHg 35%
    16:00 +37°C° 0 mm 4 m/S 750 mmHg 36%
    17:00 +36°C° 0 mm 4 m/S 750 mmHg 37%
    18:00 +35°C° 0 mm 4 m/S 750 mmHg 41%
    19:00 +33°C° 0 mm 4 m/S 751 mmHg 46%
    20:00 +30°C° 0 mm 4 m/S 751 mmHg 50%
    21:00 +30°C° 0 mm 4 m/S 752 mmHg 53%
    22:00 +29°C° 0 mm 4 m/S 752 mmHg 56%
    23:00 +29°C° 0 mm 4 m/S 753 mmHg 59%
    Mehr zeigen